Regional Weather Roundup
Issued by NWS Northern Indiana

Home | Current Version | Previous Version | Text Only | Print | Product List | Glossary On
Versions: 1 2 3 4 5 6 7 8 9 10 11 12 13 14 15 16 17 18 19 20 21 22 23 24 25 26 27 28 29 30 31 32 33 34 35 36 37 38 39 40 41 42 43 44 45 46 47 48 49 50
000
ASUS43 KIWX 051410
RWRIWX

KIWX WEATHER ROUNDUP
NATIONAL WEATHER SERVICE NORTHERN INDIANA
1000 AM EDT SAT SEP 05 2015

NOTE: "FAIR" INDICATES FEW OR NO CLOUDS BELOW 12,000 FEET WITH NO
SIGNIFICANT WEATHER AND/OR OBSTRUCTIONS TO VISIBILITY.

* THESE STATIONS ARE NOT UNDER NWS QUALITY CONTROL. THEY ALSO MAY NOT
  REPORT WEATHER SUCH AS PRECIPITATION OR FOG.

INZ001>027-051500-
NORTHERN INDIANA

CITY           SKY/WX    TMP DP  RH WIND       PRES   REMARKS
GARY*          CLOUDY    73  64  73 SE9       30.11S
VALPARAISO     PTSUNNY   72  66  81 W7        30.12F
MICHIGAN CITY* PTSUNNY   73  70  88 S6        30.11F
LAPORTE*       MOSUNNY   75  72  89 SW6       30.13S
KNOX*          MOSUNNY   73  66  78 SW5       30.11F
SOUTH BEND     MOSUNNY   75  66  73 SW7       30.12F
GOSHEN         PTSUNNY   73  66  78 S6        30.13S
MONTICELLO*    CLOUDY    71  69  94 CALM      30.13F
LOGANSPORT*    PTSUNNY   73  63  68 SW10      30.15S
ROCHESTER*     MOSUNNY   75  68  78 SW6       30.14F
WARSAW*        PTSUNNY   73  66  78 S5        30.14S
ANGOLA*        SUNNY     75  66  73 S3        30.14S
FORT WAYNE     PTSUNNY   75  68  78 CALM      30.15S
HUNTINGTON*    MOSUNNY   71  64  80 CALM      30.15S
PERU/GRISSOM   PTSUNNY   75  67  76 SW7       30.14R
MARION*        SUNNY     71  61  68 S5        30.16S

$$
INZ028>050-051500-
CENTRAL INDIANA

CITY           SKY/WX    TMP DP  RH WIND       PRES   REMARKS
LAFAYETTE      TSTM      70  65  84 NW3       30.14R
KOKOMO*        PTSUNNY   75  54  46 SW5       30.15S
MUNCIE*        MOSUNNY   74  65  73 S6        30.16S
INDIANAPOLIS   MOSUNNY   75  66  73 S5        30.15R

$$
MIZ043>046-050>051-056>058-064>065-071>073-077>080-051500-
SOUTHWEST LOWER MICHIGAN

CITY           SKY/WX    TMP DP  RH WIND       PRES   REMARKS
BATTLE CREEK   PTSUNNY   73  67  81 SE5       30.14S
BENTON HARBOR  MOSUNNY   75  66  73 CALM      30.12R THUNDER
COLDWATER*     MOSUNNY   75  66  75 SW7       30.13S
HILLSDALE*     MOSUNNY   69  68  96 SE9       30.17R
HOLLAND        TSTM      71  68  90 S6        30.13F
GRAND RAPIDS   PTSUNNY   69  68  96 CALM      30.12S FOG
KALAMAZOO      LGT RAIN  72  67  84 S3        30.13R
STURGIS*       MOSUNNY   73  68  83 SW5       30.12F
THREE RIVERS*  FAIR      72  67  85 CALM      30.12F

$$
OHZ001>008-015>018-024>025-051500-
NORTHWEST OHIO

CITY           SKY/WX    TMP DP  RH WIND       PRES   REMARKS
WAUSEON*       PTSUNNY   72  70  94 SE12      30.18R
DEFIANCE       CLOUDY    72  64  76 SE6       30.16S
FINDLAY        LGT RAIN  68  65  90 SE10      30.19F
TOLEDO EXPRESS CLOUDY    68  66  93 SE6       30.17R
TOLEDO METCALF LGT RAIN  69  65  86 W7        30.19R FOG
LIMA           LGT RAIN  68  64  87 E7        30.18F

$$
AND FOR LAKE MICHIGAN COASTAL AND OPEN LAKE BUOY OBSERVATIONS

STATION/POSITION TEMP    WIND        PRES    VSBY  WAVE
                 AIR SEA DIR/SP/G                  HT/PER
                 (F)     (DEG/KT/KT) (MB)    (MI)  (FT/S)
CALUMET HARBOR    72     200/  7/  8   N/A
MICHIGAN CITY     72     180/ 10/ 12   N/A
BURNS HARBOR      73     190/ 10/ 12 1020.0R
SAINT JOSEPH      74      30/  2/  6 1021.3R
SOUTH LAKE BUOY   71 71  160/ 12/ 14 1018.2F         0
4 MI NW BRIDGMAN  74 73  240/ 10/ 12   N/A           1/ 3
MICHIGAN CITY     74 73  240/ 10/ 12   N/A           1/ 2

$$
&&



USA.gov is the U.S. government's official web portal to all federal, state and local government web resources and services.